EW5770 Weather Reports


time (UTC)temp
F
wind
direction
speed
knots
gust
knots
rain 1hr
in
rain 24hr
in
rain mn
in
humidity
%
barometer
mb
20260509142956 72 240 1.7 7.8 0.00 0.00 0.00 60 1014.8
20260509141955 72 229 2.6 8.7 0.00 0.00 0.00 59 1014.8
20260509140955 72 226 0.0 1.7 0.00 0.00 0.00 59 1014.9
20260509133956 73 231 0.9 5.2 0.00 0.00 0.00 59 1015.2
20260509133005 72 252 0.0 0.9 0.00 0.00 0.00 61 1015.2
20260509131955 73 198 1.7 3.5 0.00 0.00 0.00 60 1015.3
20260509130955 72 171 0.9 7.0 0.00 0.00 0.00 61 1015.5
20260509125955 72 162 1.7 4.3 0.00 0.00 0.00 61 1015.6
20260509123955 72 213 0.9 4.3 0.00 0.02 0.00 63 1015.7
20260509122956 71 234 0.0 0.9 0.00 0.02 0.00 63 1015.8
20260509121957 71 148 1.7 1.7 0.00 0.02 0.00 64 1015.9
20260509120955 71 232 1.7 5.2 0.00 0.02 0.00 65 1015.9
20260509115955 70 230 1.7 9.6 0.00 0.02 0.00 66 1015.9
20260509114956 70 244 2.6 7.0 0.00 0.02 0.00 65 1016.0
20260509113956 70 240 6.1 11.3 0.00 0.02 0.00 66 1016.1
20260509112956 70 237 3.5 10.4 0.00 0.02 0.00 65 1016.2
20260509111955 70 233 4.3 8.7 0.00 0.02 0.00 65 1016.3
20260509110955 70 242 5.2 10.4 0.00 0.02 0.00 65 1016.3
20260509104955 70 235 3.5 12.2 0.00 0.02 0.00 66 1016.2
20260509103955 71 203 4.3 7.8 0.00 0.02 0.00 65 1016.1
20260509101956 71 224 3.5 6.1 0.00 0.02 0.00 65 1016.1
20260509100956 70 238 4.3 9.6 0.00 0.02 0.00 65 1016.1
20260509095955 71 197 2.6 7.0 0.00 0.02 0.00 63 1016.2
20260509094957 71 225 3.5 6.1 0.00 0.02 0.00 63 1016.2
20260509093955 71 189 1.7 7.0 0.00 0.02 0.00 63 1016.2
20260509093001 71 233 1.7 0.9 0.00 0.02 0.00 63 1016.2
20260509091956 71 235 0.9 4.3 0.00 0.02 0.00 63 1016.3
20260509090955 71 190 1.7 5.2 0.00 0.02 0.00 62 1016.4
20260509085955 71 242 0.0 0.9 0.00 0.02 0.00 63 1016.4
20260509084956 70 228 0.0 0.9 0.00 0.02 0.00 62 1016.4
20260509083956 71 205 1.7 3.5 0.00 0.02 0.00 62 1016.5
20260509082956 71 228 1.7 2.6 0.00 0.02 0.00 61 1016.4
20260509080959 71 161 0.9 4.3 0.00 0.02 0.00 63 1016.4
20260509071956 65 0 0.0 0.0 0.00 0.02 0.00 72 1016.6
20260509070955 64 0 0.0 0.0 0.00 0.02 0.00 74 1016.7
20260509065956 63 0 0.0 0.0 0.00 0.02 0.00 76 1016.6
20260509062956 60 0 0.0 0.0 0.00 0.02 0.00 79 1016.6
20260509062006 59 67 0.0 0.9 0.00 0.02 0.00 81 1016.7
20260509060955 58 0 0.0 0.0 0.00 0.02 0.00 82 1016.8
20260509054955 57 0 0.0 0.0 0.00 0.02 0.00 84 1016.8
20260509053955 57 0 0.0 0.0 0.00 0.02 0.00 85 1016.7
20260509052956 56 0 0.0 0.0 0.00 0.02 0.00 86 1016.6
20260509051956 55 0 0.0 0.0 0.00 0.02 0.00 89 1016.6
20260509050956 54 0 0.0 0.0 0.00 0.02 0.00 89 1016.6
20260509045956 54 0 0.0 0.0 0.00 0.02 0.00 89 1016.5
20260509044957 55 0 0.0 0.0 0.00 0.02 0.00 88 1016.4
20260509043956 54 0 0.0 0.0 0.00 0.02 0.00 88 1016.4
20260509042955 55 0 0.0 0.0 0.00 0.02 0.00 87 1016.4
20260509041955 55 0 0.0 0.0 0.00 0.02 0.00 87 1016.3
20260509035956 55 0 0.0 0.0 0.00 0.02 0.00 89 1016.3
20260509034956 54 0 0.0 0.0 0.00 0.02 0.00 90 1016.3
20260509033959 54 0 0.0 0.0 0.00 0.02 0.00 90 1016.3
20260509032955 54 0 0.0 0.0 0.00 0.02 0.00 90 1016.1
20260509031956 54 0 0.0 0.0 0.00 0.02 0.00 90 1016.0
20260509030955 55 0 0.0 0.0 0.00 0.02 0.00 89 1016.0
20260509025955 54 0 0.0 0.0 0.00 0.02 0.00 90 1016.1
20260509024957 55 0 0.0 0.0 0.00 0.02 0.00 90 1016.2
20260509023958 55 0 0.0 0.0 0.00 0.02 0.00 90 1016.2
20260509022955 55 0 0.0 0.0 0.00 0.02 0.00 89 1016.1
20260509021956 56 0 0.0 0.0 0.00 0.02 0.00 87 1016.1
20260509020956 56 0 0.0 0.0 0.00 0.02 0.00 87 1016.1
20260509015957 56 0 0.0 0.0 0.00 0.02 0.00 87 1016.1
20260509014955 56 0 0.0 0.0 0.00 0.02 0.00 88 1016.0
20260509013955 55 0 0.0 0.0 0.00 0.02 0.00 89 1016.0
20260509012005 56 0 0.0 0.0 0.00 0.02 0.00 87 1016.1
20260509010959 56 0 0.0 0.0 0.00 0.02 0.00 87 1016.0
20260509005959 57 0 0.0 0.0 0.00 0.02 0.00 87 1016.1
20260509004955 57 0 0.0 0.0 0.00 0.02 0.00 87 1016.1
20260509003955 57 0 0.0 0.0 0.00 0.02 0.00 87 1016.3
20260509002955 57 0 0.0 0.0 0.00 0.02 0.00 86 1016.3
20260509000959 57 0 0.0 0.0 0.00 0.02 0.00 86 1016.2
20260508235956 57 0 0.0 0.0 0.00 0.02 0.00 87 1016.2
20260508234959 57 0 0.0 0.0 0.00 0.02 0.00 86 1016.2
20260508233957 58 0 0.0 0.0 0.00 0.02 0.00 85 1016.1
20260508231955 58 0 0.0 0.0 0.00 0.02 0.00 86 1016.1
20260508230956 58 0 0.0 0.0 0.00 0.02 0.00 86 1016.1
20260508230009 58 0 0.0 0.0 0.00 0.02 0.00 85 1016.0
20260508224956 58 0 0.0 0.0 0.00 0.02 0.00 85 1016.0
20260508223957 58 0 0.0 0.0 0.00 0.02 0.00 85 1016.1
20260508220955 58 0 0.0 0.0 0.00 0.02 0.00 85 1016.0
20260508220001 59 0 0.0 0.0 0.00 0.02 0.00 85 1015.9
20260508214956 59 50 0.0 0.9 0.00 0.02 0.02 85 1015.9
20260508211956 60 0 0.0 0.0 0.00 0.02 0.02 84 1015.6
20260508210956 60 0 0.0 0.0 0.00 0.02 0.02 84 1015.5
20260508205956 60 74 0.0 0.9 0.00 0.02 0.02 83 1015.4
20260508204956 60 0 0.0 0.0 0.00 0.02 0.02 83 1015.4
20260508203959 61 0 0.0 0.0 0.00 0.02 0.02 82 1015.4
20260508202956 61 65 0.0 3.5 0.00 0.02 0.02 82 1015.3
20260508201956 62 69 0.0 0.9 0.00 0.02 0.02 82 1015.4
20260508195956 62 0 0.0 0.0 0.00 0.02 0.02 81 1015.1
20260508194955 63 0 0.0 0.0 0.00 0.02 0.02 80 1015.1
20260508193956 64 0 0.0 0.0 0.00 0.02 0.02 79 1015.1
20260508192956 64 86 0.0 1.7 0.00 0.02 0.02 78 1015.0
20260508191956 65 0 0.0 0.0 0.00 0.02 0.02 75 1014.9
20260508191000 67 0 0.0 0.0 0.00 0.02 0.02 72 1014.6
20260508190009 67 0 0.0 0.0 0.00 0.02 0.02 71 1014.5
20260508184956 67 0 0.9 0.0 0.00 0.02 0.02 71 1014.4
20260508184006 67 0 1.7 0.0 0.00 0.02 0.02 71 1014.2
20260508182956 67 0 0.9 0.0 0.00 0.02 0.02 70 1014.1
20260508180956 68 0 0.0 0.0 0.00 0.02 0.02 68 1013.8
20260508175956 69 0 0.0 0.0 0.00 0.02 0.02 66 1013.7
20260508174956 69 0 0.0 0.0 0.00 0.02 0.02 66 1013.6
20260508173956 69 0 0.0 0.0 0.00 0.02 0.02 65 1013.5
20260508172956 69 0 0.0 0.0 0.00 0.02 0.02 65 1013.4
20260508171956 69 47 0.0 2.6 0.00 0.02 0.02 65 1013.3
20260508165956 70 0 0.0 0.0 0.00 0.02 0.02 62 1013.2
20260508164956 70 0 0.0 0.0 0.00 0.02 0.02 63 1013.1
20260508163956 71 0 0.0 0.0 0.00 0.02 0.02 62 1013.1
20260508162959 71 0 0.0 0.0 0.00 0.02 0.02 62 1013.1
20260508161957 71 0 0.0 0.0 0.00 0.02 0.02 61 1013.1
20260508160956 71 0 0.0 0.0 0.00 0.02 0.02 61 1013.1
20260508153956 70 37 0.9 8.7 0.00 0.02 0.02 63 1013.2
20260508150956 70 76 0.0 3.5 0.00 0.02 0.02 65 1013.4
20260508145957 69 40 6.1 9.6 0.00 0.02 0.02 66 1013.4
20260508144956 69 35 1.7 7.0 0.00 0.02 0.02 66 1013.5